Regional Weather Roundup
Issued by NWS

Home | Current Version | Previous Version | Text Only | Print | Product List | Glossary Off
Versions: 1 2 3 4 5 6 7 8 9 10 11 12 13 14 15 16 17 18 19 20 21 22 23 24 25 26 27 28 29 30 31 32 33 34 35 36 37 38 39 40 41 42 43 44 45 46 47 48 49 50

000
ASUS43 KMKX 220621
RWRWI

WISCONSIN REGIONAL WEATHER ROUNDUP
NATIONAL WEATHER SERVICE MILWAUKEE/SULLIVAN WI
100 AM CDT TUE JUL 22 2014

NOTE: "FAIR" INDICATES FEW OR NO CLOUDS BELOW 12,000 FEET WITH NO
SIGNIFICANT WEATHER AND/OR OBSTRUCTIONS TO VISIBILITY.

WIZ001-002-006>008-014>016-023>028-220700-
NORTHWEST WISCONSIN

CITY           SKY/WX    TMP DP  RH WIND       PRES   REMARKS
SUPERIOR ARPT  CLOUDY    79  73  80 SW12G17   29.79R HX  83
6HR MIN TEMP:  66; 6HR MAX TEMP:  86;

ASHLAND        MOCLDY    79  70  74 S9        29.82F HX  82
6HR MIN TEMP:  79; 6HR MAX TEMP:  86;

HAYWARD        CLOUDY    79  70  74 S13G20    29.85F HX  82
6HR MIN TEMP:  79; 6HR MAX TEMP:  84;

SIREN          CLOUDY    80  70  73 S7G20     29.81S HX  83
6HR MIN TEMP:  80; 6HR MAX TEMP:  85;

RICE LAKE      CLOUDY    77  69  75 S10G18    29.87F
6HR MIN TEMP:  77; 6HR MAX TEMP:  85;

LADYSMITH      CLOUDY    77  68  74 S9        29.90F
6HR MIN TEMP:  77; 6HR MAX TEMP:  85;

EAU CLAIRE     MOCLDY    78  70  76 S13       29.87F HX  80
6HR MIN TEMP:  78; 6HR MAX TEMP:  86; 6HR PCP: TRACE;

MENOMONIE      CLOUDY    79  70  74 SE9       29.87S HX  82
6HR MIN TEMP:  79; 6HR MAX TEMP:  85;

NEW RICHMOND   CLOUDY    79  71  75 S13G18    29.83F HX  82
6HR MIN TEMP:  79; 6HR MAX TEMP:  84;

OSCEOLA        CLOUDY    80  73  78 S15       29.83F HX  84
6HR MIN TEMP:  80; 6HR MAX TEMP:  85;

$$

WIZ003>005-009-010-017-018-220700-
NORTH CENTRAL WISCONSIN

CITY           SKY/WX    TMP DP  RH WIND       PRES   REMARKS
WOODRUFF       PTCLDY    75  68  79 S16G22    29.92F
6HR MIN TEMP:  74; 6HR MAX TEMP:  82;

RHINELANDER    PTCLDY    73  66  78 S10G18    29.95F
6HR MIN TEMP:  73; 6HR MAX TEMP:  81;

EAGLE RIVER    PTCLDY    73  65  76 S8        29.94S
6HR MIN TEMP:  73; 6HR MAX TEMP:  80;

LAND O LAKES   CLEAR     73  67  79 S6        29.94F
6HR MIN TEMP:  73; 6HR MAX TEMP:  82;

PHILLIPS       CLOUDY    74  67  81 S12G20    29.90F
6HR MIN TEMP:  73; 6HR MAX TEMP:  82;

TOMAHAWK       PTCLDY    72  66  83 S6        29.94F
6HR MIN TEMP:  72; 6HR MAX TEMP:  81;

MEDFORD        MOCLDY    72  67  85 S10       29.94F
6HR MIN TEMP:  71; 6HR MAX TEMP:  80;

MERRILL        PTCLDY    75  68  79 S8        29.94F
6HR MIN TEMP:  74; 6HR MAX TEMP:  81;

$$

WIZ029-030-035-036-043>047-220700-
CENTRAL WISCONSIN

CITY           SKY/WX    TMP DP  RH WIND       PRES   REMARKS
WAUSAU         PTCLDY    74  67  78 S9        29.95S
6HR MIN TEMP:  74; 6HR MAX TEMP:  83; 6HR PCP: TRACE;

MOSINEE        CLEAR     72  68  88 S10       29.98S
MARSHFIELD     CLOUDY    74  68  81 S10       29.96S
6HR MIN TEMP:  72; 6HR MAX TEMP:  82;

STEVENS POINT  CLEAR     72  66  82 S7        29.98S
6HR MIN TEMP:  72; 6HR MAX TEMP:  82;

WAUPACA        CLEAR     74  69  83 SE5       29.98F
6HR MIN TEMP:  74; 6HR MAX TEMP:  87;

WAUTOMA        PTCLDY    73  69  87 SE5       29.99S
6HR MIN TEMP:  73; 6HR MAX TEMP:  86;

WISC RAPIDS    CLEAR     75  68  78 S7        29.98S
6HR MIN TEMP:  75; 6HR MAX TEMP:  85;

CAMP DOUGLAS   PTCLDY    75  71  86 S5        29.96S
6HR MIN TEMP:  71; 6HR MAX TEMP:  83; 6HR PCP: TRACE;

$$

WIZ011>013-019>022-031-037>040-048>050-220700-
NORTHEAST WISCONSIN

CITY           SKY/WX    TMP DP  RH WIND       PRES   REMARKS
ANTIGO         PTCLDY    71  67  87 S14       29.98F
6HR MIN TEMP:  71; 6HR MAX TEMP:  77;

STURGEON BAY   CLEAR     66  61  82 S8        30.00S
6HR MIN TEMP:  66; 6HR MAX TEMP:  73;

GREEN BAY      CLEAR     72  65  78 S9        29.99F
6HR MIN TEMP:  71; 6HR MAX TEMP:  84;

MANITOWOC      CLEAR     64  61  90 E3        30.02R
6HR MIN TEMP:  64; 6HR MAX TEMP:  74;

APPLETON       MOCLDY    73  64  73 S8        30.00S
CLINTONVILLE   CLOUDY    73  68  83 S6        29.98F
OSHKOSH        MOCLDY    74  68  81 S12       29.99S
6HR MIN TEMP:  73; 6HR MAX TEMP:  83;

$$

WIZ032>034-041-042-053>061-220700-
SOUTHWEST WISCONSIN

CITY           SKY/WX    TMP DP  RH WIND       PRES   REMARKS
LA CROSSE      PTCLDY    81  69  67 S15       29.91S HX  84
6HR MIN TEMP:  80; 6HR MAX TEMP:  87;

SPARTA         CLEAR     77  66  69 S13G18    29.95R
6HR MIN TEMP:  77; 6HR MAX TEMP:  84;

VIROQUA        MOCLDY    75  68  79 S10G18    29.97F
6HR MIN TEMP:  74; 6HR MAX TEMP:  82;

BOSCOBEL       MOCLDY    78  68  71 S7        29.97S HX  80
6HR MIN TEMP:  78; 6HR MAX TEMP:  86;

PRAIRIE DU CHI CLOUDY    78  67  67 SE7       29.95F HX  80
6HR MIN TEMP:  78; 6HR MAX TEMP:  84;

PLATTEVILLE    FAIR      75  69  84 S12       30.01F
6HR MIN TEMP:  74; 6HR MAX TEMP:  82;

$$

WIZ056-057-062-063-064-067-068-220700-
SOUTH CENTRAL WISCONSIN

CITY           SKY/WX    TMP DP  RH WIND       PRES   REMARKS
BARABOO/DELLS  CLEAR     74  66  75 S9G16     29.98S
6HR MIN TEMP:  74; 6HR MAX TEMP:  83;

LONE ROCK      CLEAR     79  69  71 VRB5      29.99S HX  81
6HR MIN TEMP:  79; 6HR MAX TEMP:  88;

WATERTOWN      PTCLDY    71  67  89 S6        30.02F
6HR MIN TEMP:  71; 6HR MAX TEMP:  81;

MADISON        PTCLDY    76  68  76 S13       30.01S
6HR MIN TEMP:  76; 6HR MAX TEMP:  84;

MIDDLETON      FAIR      75  68  78 S7        30.01F
6HR MIN TEMP:  75; 6HR MAX TEMP:  84;

MONROE         MOCLDY    72  68  88 S13       30.02S
JANESVILLE     PTCLDY    73  64  73 S7        30.03S
$$

WIZ051-052-058>065-066-070>072-220700-
SOUTHEAST WISCONSIN

CITY           SKY/WX    TMP DP  RH WIND       PRES   REMARKS
MILWAUKEE      CLEAR     74  64  71 S8        30.03S
6HR MIN TEMP:  72; 6HR MAX TEMP:  78;

WAUKESHA       CLEAR     70  63  78 S3        30.05S
MILWAUKEE/TIMM CLEAR     72  63  73 S7        30.04S
RACINE         CLEAR     72  65  78 S5        30.05F
6HR MIN TEMP:  70; 6HR MAX TEMP:  77;

BURLINGTON     CLEAR     66  64  92 CALM      30.05R
6HR MIN TEMP:  66; 6HR MAX TEMP:  78;

KENOSHA        CLEAR     70  65  84 S5        30.05S
6HR MIN TEMP:  70; 6HR MAX TEMP:  80; 6HR PCP: TRACE;

FOND DU LAC    CLEAR     75  66  73 S13       30.01R
6HR MIN TEMP:  74; 6HR MAX TEMP:  83;

SHEBOYGAN      CLEAR     66  62  87 S5        30.02R
6HR MIN TEMP:  66; 6HR MAX TEMP:  76;

WEST BEND      CLEAR     70  63  78 S5        30.03S
JUNEAU         CLEAR     71  53  51 S10       30.03S
6HR MIN TEMP:  71; 6HR MAX TEMP:  82;

$$

LSZ147-162-220700-
LAKE SUPERIOR

STATION/POSITION TIME  TEMP    WIND        PRES    WAVE
                       AIR SEA DIR/SP/G            HT/PER
                 (UTC) (F)     (DEG/KT/KT) (MB)    (FT/S)
W MID LAKE BUOY  0550   55 40  150/ 12/ 12 1009.4F   0
PORT WING        0500   81     180/  5/ 10 1009.1
SAXON HARBOR     0500          180/  4/  9 1009.8F
$$

LMZ867-665-643>646-220700-
LAKE MICHIGAN

STATION/POSITION TIME  TEMP    WIND        PRES    WAVE
                       AIR SEA DIR/SP/G            HT/PER
                 (UTC) (F)     (DEG/KT/KT) (MB)    (FT/S)
N MID LAKE BUOY  0550   62 56  200/ 12/ 14 1015.3F   2/ 5
NORTHPORT PIER   0500   68     160/  7/ 12 1015.6S
KEWAUNEE LAKESHO 0600   56     160/  5/  7 1016.6S
SHEBOYGAN LAKESH 0600   68     190/ 13/ 13 1016.4R
PORT WASHINGTON  0500   61     180/  2/  4 1016.9
ATWATER BUOY     0600   58     140/  8     1017.7R
MILWAUKEE LAKESH 0600   72     200/  8/ 10   N/A
S MID LAKE BUOY  0550   72 69  180/ 12/ 12 1017.4F   1
KENOSHA   LAKESH 0600   71     190/  6/  6   N/A
$$

TC  - TEMPERATURE IN CELSIUS
VSB - VISIBILITY IN STATUTE MILES
WCI - WIND CHILL INDEX
HX  - HEAT INDEX




USA.gov is the U.S. government's official web portal to all federal, state and local government web resources and services.